TimeCDT,TemperatureF,Dew PointF,Humidity,Sea Level PressureIn,VisibilityMPH,Wind Direction,Wind SpeedMPH,Gust SpeedMPH,PrecipitationIn,Events,Conditions,WindDirDegrees,DateUTC
12:53 AM,55.9,50.0,80,30.09,10.0,ESE,5.8,-,N/A,,Clear,120,2013-04-22 05:53:00
1:53 AM,55.9,48.9,77,30.08,10.0,ESE,5.8,-,N/A,,Clear,110,2013-04-22 06:53:00
2:53 AM,54.0,48.0,80,30.06,10.0,ESE,4.6,-,N/A,,Clear,120,2013-04-22 07:53:00
3:53 AM,54.0,48.0,80,30.04,10.0,SE,8.1,-,N/A,,Clear,130,2013-04-22 08:53:00
4:53 AM,54.0,48.0,80,30.04,10.0,SE,11.5,-,N/A,,Clear,140,2013-04-22 09:53:00
5:53 AM,52.0,48.0,86,30.04,10.0,SSE,6.9,-,N/A,,Clear,150,2013-04-22 10:53:00
6:53 AM,53.1,50.0,89,30.05,10.0,SE,8.1,-,N/A,,Clear,140,2013-04-22 11:53:00
7:53 AM,55.0,52.0,89,30.06,10.0,SSE,8.1,-,N/A,,Clear,150,2013-04-22 12:53:00
8:53 AM,60.1,55.0,83,30.06,10.0,South,9.2,-,N/A,,Clear,180,2013-04-22 13:53:00
9:53 AM,64.9,53.1,65,30.05,10.0,South,21.9,27.6,N/A,,Clear,170,2013-04-22 14:53:00
10:53 AM,68.0,54.0,61,30.04,10.0,South,20.7,28.8,N/A,,Clear,180,2013-04-22 15:53:00
11:53 AM,71.1,54.0,55,30.02,10.0,South,21.9,26.5,N/A,,Clear,180,2013-04-22 16:53:00
12:53 PM,73.0,55.9,55,29.99,10.0,SSE,18.4,25.3,N/A,,Clear,160,2013-04-22 17:53:00
1:53 PM,75.0,57.0,53,29.95,10.0,SSE,18.4,26.5,N/A,,Clear,160,2013-04-22 18:53:00
2:53 PM,75.9,57.9,54,29.92,10.0,South,20.7,25.3,N/A,,Partly Cloudy,180,2013-04-22 19:53:00
3:53 PM,77.0,59.0,54,29.87,10.0,SSE,18.4,31.1,N/A,,Clear,160,2013-04-22 20:53:00
4:53 PM,78.1,60.1,54,29.84,10.0,SSE,20.7,26.5,N/A,,Clear,160,2013-04-22 21:53:00
5:53 PM,77.0,59.0,54,29.82,10.0,SSE,19.6,26.5,N/A,,Clear,150,2013-04-22 22:53:00
6:53 PM,75.9,59.0,56,29.81,10.0,SSE,23.0,29.9,N/A,,Clear,150,2013-04-22 23:53:00
7:53 PM,73.9,59.0,59,29.81,10.0,SSE,15.0,-,N/A,,Clear,150,2013-04-23 00:53:00
8:53 PM,71.1,59.0,66,29.83,10.0,SE,12.7,-,N/A,,Clear,140,2013-04-23 01:53:00
9:53 PM,70.0,59.0,68,29.84,10.0,SSE,12.7,-,N/A,,Clear,150,2013-04-23 02:53:00
10:53 PM,69.1,57.9,68,29.83,10.0,SE,13.8,-,N/A,,Clear,140,2013-04-23 03:53:00
11:53 PM,66.9,57.9,73,29.82,10.0,SSE,15.0,26.5,N/A,,Clear,150,2013-04-23 04:53:00